Time,TemperatureF,DewpointF,PressureIn,WindDirection,WindDirectionDegrees,WindSpeedMPH,WindSpeedGustMPH,Humidity,HourlyPrecipIn,Conditions,Clouds,dailyrainin,SoftwareType,DateUTC
2013-03-31 00:01:00,54.3,-44.3,29.76,ENE,67,0.0,-999.0,1,-99.99,,,0.00,Acu-Link.com,2013-03-31 05:01:00,
2013-03-31 00:31:00,53.4,-44.9,29.75,SSE,157,0.0,-999.0,1,-99.99,,,0.00,Acu-Link.com,2013-03-31 05:31:00,
2013-03-31 00:46:00,53.1,-45.1,29.75,East,90,0.0,-999.0,1,-99.99,,,0.00,Acu-Link.com,2013-03-31 05:46:00,
2013-03-31 01:01:00,52.9,-45.2,29.74,ESE,112,0.0,-999.0,1,-99.99,,,0.00,Acu-Link.com,2013-03-31 06:01:00,
2013-03-31 01:16:00,53.4,-44.9,29.74,ESE,112,0.0,-999.0,1,-99.99,,,0.00,Acu-Link.com,2013-03-31 06:16:00,
2013-03-31 01:32:00,54.3,-44.3,29.74,SSE,157,0.0,-999.0,1,-99.99,,,0.00,Acu-Link.com,2013-03-31 06:32:00,
2013-03-31 01:47:00,55.8,-43.4,29.74,SE,135,0.0,-999.0,1,-99.99,,,0.00,Acu-Link.com,2013-03-31 06:47:00,
2013-03-31 02:02:00,56.5,-43.0,29.74,South,180,2.7,-999.0,1,-99.99,,,0.00,Acu-Link.com,2013-03-31 07:02:00,
2013-03-31 02:17:00,56.5,-43.0,29.74,South,180,0.0,-999.0,1,-99.99,,,0.00,Acu-Link.com,2013-03-31 07:17:00,
2013-03-31 02:32:00,56.5,-43.0,29.73,South,180,0.0,-999.0,1,-99.99,,,0.00,Acu-Link.com,2013-03-31 07:32:00,
2013-03-31 02:47:00,56.1,-43.2,29.73,West,270,0.0,-999.0,1,-99.99,,,0.00,Acu-Link.com,2013-03-31 07:47:00,
2013-03-31 03:02:00,56.1,-43.2,29.73,SE,135,0.0,-999.0,1,-99.99,,,0.00,Acu-Link.com,2013-03-31 08:02:00,
2013-03-31 03:18:00,55.8,-43.4,29.72,South,180,0.0,-999.0,1,-99.99,,,0.00,Acu-Link.com,2013-03-31 08:18:00,
2013-03-31 03:33:00,55.8,-43.4,29.71,SSE,157,0.0,-999.0,1,-99.99,,,0.00,Acu-Link.com,2013-03-31 08:33:00,
2013-03-31 03:48:00,56.3,-43.1,29.71,South,180,0.0,-999.0,1,-99.99,,,0.00,Acu-Link.com,2013-03-31 08:48:00,
2013-03-31 04:03:00,56.3,-43.1,29.70,South,180,0.0,-999.0,1,-99.99,,,0.00,Acu-Link.com,2013-03-31 09:03:00,
2013-03-31 04:18:00,56.7,-42.9,29.70,NW,315,0.0,-999.0,1,-99.99,,,0.00,Acu-Link.com,2013-03-31 09:18:00,
2013-03-31 04:34:00,56.7,-42.9,29.70,South,180,0.0,-999.0,1,-99.99,,,0.00,Acu-Link.com,2013-03-31 09:34:00,
2013-03-31 04:49:00,56.7,-42.9,29.70,SE,135,2.2,-999.0,1,-99.99,,,0.00,Acu-Link.com,2013-03-31 09:49:00,
2013-03-31 05:04:00,56.5,-43.0,29.70,South,180,0.0,-999.0,1,-99.99,,,0.00,Acu-Link.com,2013-03-31 10:04:00,
2013-03-31 05:19:00,57.2,-42.6,29.69,South,180,0.0,-999.0,1,-99.99,,,0.00,Acu-Link.com,2013-03-31 10:19:00,
2013-03-31 05:34:00,57.7,-42.3,29.69,SE,135,1.1,-999.0,1,-99.99,,,0.00,Acu-Link.com,2013-03-31 10:34:00,
2013-03-31 05:49:00,58.1,-42.0,29.69,South,180,3.7,-999.0,1,-99.99,,,0.00,Acu-Link.com,2013-03-31 10:49:00,
2013-03-31 06:04:00,58.6,-41.7,29.70,SW,225,1.7,-999.0,1,-99.99,,,0.00,Acu-Link.com,2013-03-31 11:04:00,
2013-03-31 06:19:00,58.8,-41.6,29.70,SSE,157,1.7,-999.0,1,-99.99,,,0.00,Acu-Link.com,2013-03-31 11:19:00,
2013-03-31 06:34:00,59.2,-41.3,29.70,SW,225,0.0,-999.0,1,-99.99,,,0.00,Acu-Link.com,2013-03-31 11:34:00,
2013-03-31 06:49:00,59.4,-41.2,29.70,SSW,202,2.7,-999.0,1,-99.99,,,0.00,Acu-Link.com,2013-03-31 11:49:00,
2013-03-31 07:05:00,59.7,-41.0,29.70,SSE,157,0.0,-999.0,1,-99.99,,,0.00,Acu-Link.com,2013-03-31 12:05:00,
2013-03-31 07:20:00,59.9,-40.9,29.71,South,180,0.0,-999.0,1,-99.99,,,0.00,Acu-Link.com,2013-03-31 12:20:00,
2013-03-31 07:35:00,60.3,-40.7,29.71,SSW,202,2.2,-999.0,1,-99.99,,,0.00,Acu-Link.com,2013-03-31 12:35:00,
2013-03-31 07:50:00,60.4,-40.6,29.71,SSE,157,1.7,-999.0,1,-99.99,,,0.00,Acu-Link.com,2013-03-31 12:50:00,
2013-03-31 08:05:00,61.2,-40.1,29.71,South,180,0.0,-999.0,1,-99.99,,,0.00,Acu-Link.com,2013-03-31 13:05:00,
2013-03-31 08:20:00,62.2,-39.5,29.71,West,270,2.2,-999.0,1,-99.99,,,0.00,Acu-Link.com,2013-03-31 13:20:00,
2013-03-31 08:35:00,63.5,-38.7,29.71,SSW,202,3.2,-999.0,1,-99.99,,,0.00,Acu-Link.com,2013-03-31 13:35:00,
2013-03-31 08:50:00,63.9,-38.5,29.71,SE,135,3.7,-999.0,1,-99.99,,,0.00,Acu-Link.com,2013-03-31 13:50:00,
2013-03-31 09:05:00,64.8,-37.9,29.71,SE,135,3.2,-999.0,1,-99.99,,,0.00,Acu-Link.com,2013-03-31 14:05:00,
2013-03-31 09:21:00,65.7,-37.4,29.71,SW,225,3.7,-999.0,1,-99.99,,,0.00,Acu-Link.com,2013-03-31 14:21:00,
2013-03-31 09:51:00,67.6,-36.3,29.72,SSE,157,1.1,-999.0,1,-99.99,,,0.00,Acu-Link.com,2013-03-31 14:51:00,
2013-03-31 10:21:00,68.2,-35.9,29.72,ENE,67,0.0,-999.0,1,-99.99,,,0.00,Acu-Link.com,2013-03-31 15:21:00,
2013-03-31 10:36:00,69.8,-34.9,29.71,SW,225,0.0,-999.0,1,-99.99,,,0.00,Acu-Link.com,2013-03-31 15:36:00,
2013-03-31 10:51:00,70.2,-34.7,29.71,West,270,0.0,-999.0,1,-99.99,,,0.00,Acu-Link.com,2013-03-31 15:51:00,
2013-03-31 11:06:00,69.8,-34.9,29.72,ESE,112,2.2,-999.0,1,-99.99,,,0.00,Acu-Link.com,2013-03-31 16:06:00,
2013-03-31 11:22:00,69.6,-35.1,29.71,SW,225,2.7,-999.0,1,-99.99,,,0.00,Acu-Link.com,2013-03-31 16:22:00,
2013-03-31 11:37:00,72.0,71.4,29.70,SSW,202,0.0,-999.0,98,-99.99,,,0.00,Acu-Link.com,2013-03-31 16:37:00,
2013-03-31 11:52:00,73.2,-6.4,29.70,SE,135,2.2,-999.0,4,-99.99,,,0.00,Acu-Link.com,2013-03-31 16:52:00,
2013-03-31 12:07:00,71.4,65.3,29.71,SSE,157,4.7,-999.0,81,-99.99,,,0.00,Acu-Link.com,2013-03-31 17:07:00,
2013-03-31 12:22:00,72.0,-20.9,29.69,WNW,292,1.1,-999.0,2,-99.99,,,0.00,Acu-Link.com,2013-03-31 17:22:00,
2013-03-31 12:37:00,71.8,26.0,29.70,West,270,5.3,-999.0,18,-99.99,,,0.00,Acu-Link.com,2013-03-31 17:37:00,
2013-03-31 12:52:00,72.0,-33.6,29.70,West,270,0.0,-999.0,1,-99.99,,,0.00,Acu-Link.com,2013-03-31 17:52:00,
2013-03-31 13:07:00,71.4,44.5,29.70,West,270,0.0,-999.0,38,-99.99,,,0.00,Acu-Link.com,2013-03-31 18:07:00,
2013-03-31 13:22:00,71.1,69.6,29.70,SSW,202,4.7,-999.0,95,-99.99,,,0.00,Acu-Link.com,2013-03-31 18:22:00,
2013-03-31 13:37:00,69.4,32.1,29.70,ESE,112,6.3,-999.0,25,-99.99,,,0.00,Acu-Link.com,2013-03-31 18:37:00,
2013-03-31 13:53:00,67.6,9.1,29.70,SSW,202,3.7,-999.0,10,-99.99,,,0.00,Acu-Link.com,2013-03-31 18:53:00,
2013-03-31 14:08:00,66.7,-36.8,29.70,South,180,0.0,-999.0,1,-99.99,,,0.00,Acu-Link.com,2013-03-31 19:08:00,
2013-03-31 14:23:00,66.7,-36.8,29.70,WSW,247,2.7,-999.0,1,-99.99,,,0.00,Acu-Link.com,2013-03-31 19:23:00,
2013-03-31 14:38:00,65.7,-37.4,29.69,SSW,202,3.7,-999.0,1,-99.99,,,0.00,Acu-Link.com,2013-03-31 19:38:00,
2013-03-31 14:53:00,65.7,-37.4,29.68,South,180,0.0,-999.0,1,-99.99,,,0.00,Acu-Link.com,2013-03-31 19:53:00,
2013-03-31 15:08:00,65.3,-37.6,29.69,SSW,202,1.1,-999.0,1,-99.99,,,0.00,Acu-Link.com,2013-03-31 20:08:00,
2013-03-31 15:24:00,59.5,-41.2,29.72,NW,315,11.9,-999.0,1,-99.99,,,0.08,Acu-Link.com,2013-03-31 20:24:00,
2013-03-31 15:39:00,58.6,-41.7,29.70,North,0,5.3,-999.0,1,-99.99,,,0.22,Acu-Link.com,2013-03-31 20:39:00,
2013-03-31 15:54:00,58.3,-41.9,29.71,NNW,337,0.0,-999.0,1,-99.99,,,0.30,Acu-Link.com,2013-03-31 20:54:00,
2013-03-31 16:09:00,58.1,-42.0,29.70,South,180,0.0,-999.0,1,-99.99,,,0.31,Acu-Link.com,2013-03-31 21:09:00,
2013-03-31 16:24:00,58.3,-41.9,29.62,SE,135,5.3,-999.0,1,-99.99,,,0.34,Acu-Link.com,2013-03-31 21:24:00,
2013-03-31 16:39:00,58.3,-41.9,29.59,SSE,157,1.7,-999.0,1,-99.99,,,0.37,Acu-Link.com,2013-03-31 21:39:00,
2013-03-31 16:54:00,58.6,-41.7,29.59,ESE,112,2.7,-999.0,1,-99.99,,,0.37,Acu-Link.com,2013-03-31 21:54:00,
2013-03-31 17:09:00,59.4,-41.2,29.61,NE,45,0.0,-999.0,1,-99.99,,,0.37,Acu-Link.com,2013-03-31 22:09:00,
2013-03-31 17:24:00,59.5,-41.2,29.62,North,0,0.0,-999.0,1,-99.99,,,0.37,Acu-Link.com,2013-03-31 22:24:00,
2013-03-31 17:40:00,60.3,-40.7,29.62,West,270,0.0,-999.0,1,-99.99,,,0.37,Acu-Link.com,2013-03-31 22:40:00,
2013-03-31 17:55:00,60.8,-40.4,29.63,West,270,0.0,-999.0,1,-99.99,,,0.37,Acu-Link.com,2013-03-31 22:55:00,
2013-03-31 18:10:00,60.4,-40.6,29.63,West,270,0.0,-999.0,1,-99.99,,,0.37,Acu-Link.com,2013-03-31 23:10:00,
2013-03-31 18:25:00,60.4,-40.6,29.63,SSW,202,0.0,-999.0,1,-99.99,,,0.37,Acu-Link.com,2013-03-31 23:25:00,
2013-03-31 18:41:00,61.5,-39.9,29.62,WNW,292,0.0,-999.0,1,-99.99,,,0.37,Acu-Link.com,2013-03-31 23:41:00,
2013-03-31 18:56:00,60.6,-40.5,29.62,West,270,0.0,-999.0,1,-99.99,,,0.37,Acu-Link.com,2013-03-31 23:56:00,
2013-03-31 19:11:00,59.4,-41.2,29.62,NNE,22,0.0,-999.0,1,-99.99,,,0.37,Acu-Link.com,2013-04-01 00:11:00,
2013-03-31 19:27:00,58.1,-42.0,29.63,NE,45,0.0,-999.0,1,-99.99,,,0.37,Acu-Link.com,2013-04-01 00:27:00,
2013-03-31 19:42:00,57.0,-42.7,29.63,SW,225,0.0,-999.0,1,-99.99,,,0.37,Acu-Link.com,2013-04-01 00:42:00,
2013-03-31 19:57:00,56.1,-43.2,29.64,NNW,337,0.0,-999.0,1,-99.99,,,0.37,Acu-Link.com,2013-04-01 00:57:00,
2013-03-31 20:12:00,55.6,-43.5,29.65,WSW,247,0.0,-999.0,1,-99.99,,,0.37,Acu-Link.com,2013-04-01 01:12:00,
2013-03-31 20:27:00,54.9,-44.0,29.65,NE,45,0.0,-999.0,1,-99.99,,,0.37,Acu-Link.com,2013-04-01 01:27:00,
2013-03-31 20:42:00,54.5,-44.2,29.66,WNW,292,0.0,-999.0,1,-99.99,,,0.37,Acu-Link.com,2013-04-01 01:42:00,
2013-03-31 20:57:00,54.0,-44.5,29.66,South,180,0.0,-999.0,1,-99.99,,,0.37,Acu-Link.com,2013-04-01 01:57:00,
2013-03-31 21:12:00,53.2,-45.0,29.67,NE,45,0.0,-999.0,1,-99.99,,,0.37,Acu-Link.com,2013-04-01 02:12:00,
2013-03-31 21:27:00,52.5,-45.4,29.69,WSW,247,0.0,-999.0,1,-99.99,,,0.37,Acu-Link.com,2013-04-01 02:27:00,
2013-03-31 21:42:00,52.2,-45.6,29.69,SSE,157,0.0,-999.0,1,-99.99,,,0.37,Acu-Link.com,2013-04-01 02:42:00,
2013-03-31 21:58:00,52.5,-45.4,29.69,NE,45,0.0,-999.0,1,-99.99,,,0.37,Acu-Link.com,2013-04-01 02:58:00,
2013-03-31 22:13:00,53.1,-45.1,29.69,NNW,337,0.0,-999.0,1,-99.99,,,0.37,Acu-Link.com,2013-04-01 03:13:00,
2013-03-31 22:28:00,53.2,-45.0,29.70,ESE,112,0.0,-999.0,1,-99.99,,,0.37,Acu-Link.com,2013-04-01 03:28:00,
2013-03-31 22:43:00,53.2,-45.0,29.70,WNW,292,0.0,-999.0,1,-99.99,,,0.37,Acu-Link.com,2013-04-01 03:43:00,
2013-03-31 22:58:00,53.4,-44.9,29.71,South,180,0.0,-999.0,1,-99.99,,,0.37,Acu-Link.com,2013-04-01 03:58:00,
2013-03-31 23:29:00,53.2,-45.0,29.71,NNW,337,0.0,-999.0,1,-99.99,,,0.37,Acu-Link.com,2013-04-01 04:29:00,
2013-03-31 23:44:00,53.2,-45.0,29.71,WNW,292,0.0,-999.0,1,-99.99,,,0.37,Acu-Link.com,2013-04-01 04:44:00,
2013-03-31 23:59:00,54.1,-44.4,29.70,ESE,112,0.0,-999.0,1,-99.99,,,0.37,Acu-Link.com,2013-04-01 04:59:00,